1999,8,1,0,0,-5.62,01,.77,01,-3.83,01,-.06,01,20.99,01,80.00,01,3.27,01,182.00,01,13.45,01
1999,8,1,0,5,-5.86,01,.80,01,-3.89,01,-.07,01,20.97,01,78.80,01,3.17,01,182.40,01,13.45,01
1999,8,1,0,10,-5.55,01,1.11,01,-3.61,01,-.07,01,21.12,01,76.10,01,2.99,01,184.00,01,13.45,01
1999,8,1,0,15,-5.41,01,1.13,01,-3.60,01,-.04,01,21.18,01,75.30,01,3.06,01,180.00,01,13.45,01
1999,8,1,0,20,-5.23,01,1.15,01,-3.42,01,-.09,01,21.17,01,75.60,01,3.32,01,170.90,01,13.45,01
1999,8,1,0,25,-5.38,01,1.05,01,-3.52,01,-.06,01,21.20,01,75.00,01,3.00,01,162.00,01,13.45,01
1999,8,1,0,30,-5.60,01,.90,01,-3.57,01,-.09,01,21.23,01,75.90,01,2.59,01,155.90,01,13.45,01
1999,8,1,0,35,-5.83,01,.93,01,-3.81,01,-.02,01,21.21,01,76.30,01,2.65,01,155.60,01,13.44,01
1999,8,1,0,40,-6.01,01,.63,01,-4.03,01,-.11,01,21.16,01,77.70,01,2.68,01,165.10,01,13.45,01
1999,8,1,0,45,-6.07,01,.51,01,-4.24,01,-.04,01,21.05,01,79.90,01,2.62,01,171.10,01,13.44,01
1999,8,1,0,50,-5.88,01,.62,01,-4.25,01,-.04,01,21.05,01,80.00,01,2.31,01,156.20,01,13.44,01
1999,8,1,0,55,-6.51,01,-.81,01,-4.87,01,-.08,01,20.65,01,82.30,01,2.44,01,158.10,01,13.44,01
1999,8,1,1,0,-6.60,01,-.74,01,-5.00,01,-.07,01,20.28,01,84.10,01,2.17,01,162.00,01,13.45,01
1999,8,1,1,5,-6.17,01,.01,01,-4.74,01,-.08,01,20.29,01,83.80,01,1.92,01,164.10,01,13.45,01
1999,8,1,1,10,-6.46,01,.48,01,-4.68,01,-.08,01,20.50,01,81.90,01,1.58,01,185.30,01,13.45,01
1999,8,1,1,15,-6.39,01,.63,01,-4.72,01,-.06,01,20.64,01,81.20,01,1.37,01,180.90,01,13.45,01
1999,8,1,1,20,-6.73,01,-.89,01,-5.15,01,-.04,01,20.35,01,85.50,01,1.25,01,159.30,01,13.45,01
1999,8,1,1,25,-7.57,01,-.69,01,-5.65,01,-.10,01,19.99,01,87.80,01,.60,01,21.64,01,13.45,01
1999,8,1,1,30,-6.74,01,-.06,01,-5.32,01,-.07,01,19.97,01,87.40,01,1.25,01,34.60,01,13.45,01
1999,8,1,1,35,-6.51,01,.34,01,-5.30,01,-.12,01,20.09,01,86.40,01,.87,01,17.61,01,13.45,01
1999,8,1,1,40,-6.25,01,.44,01,-5.26,01,-.08,01,20.23,01,85.40,01,.66,01,89.00,01,13.45,01
1999,8,1,1,45,-6.20,01,.71,01,-5.22,01,-.09,01,20.34,01,83.50,01,1.02,01,106.40,01,13.45,01
1999,8,1,1,50,-6.48,01,.61,01,-5.33,01,-.16,01,20.47,01,84.60,01,.81,01,86.60,01,13.45,01
1999,8,1,1,55,-6.93,01,-.60,01,-5.90,01,-.03,01,20.14,01,87.30,01,.83,01,2.37,01,13.45,01
1999,8,1,2,0,-7.43,01,-1.02,01,-6.25,01,-.06,01,19.79,01,87.80,01,.49,01,359.70,01,13.45,01
1999,8,1,2,5,-7.61,01,-.99,01,-6.48,01,-.09,01,19.62,01,88.10,01,.70,01,91.40,01,13.46,01
1999,8,1,2,10,-7.77,01,-1.02,01,-6.68,01,-.02,01,19.40,01,89.10,01,.43,01,71.30,01,13.46,01
1999,8,1,2,15,-7.68,01,-.27,01,-6.71,01,-.05,01,19.39,01,87.20,01,.41,01,112.00,01,13.46,01
1999,8,1,2,20,-7.50,01,.22,01,-6.58,01,-.09,01,19.51,01,85.30,01,1.20,01,131.40,01,13.46,01
1999,8,1,2,25,-7.17,01,.39,01,-6.36,01,-.05,01,19.64,01,83.90,01,.93,01,68.07,01,13.46,01
1999,8,1,2,30,-6.89,01,.41,01,-6.33,01,-.05,01,19.71,01,82.80,01,1.41,01,18.36,01,13.47,01
1999,8,1,2,35,-6.90,01,.42,01,-6.51,01,-.11,01,19.79,01,81.50,01,1.75,01,35.13,01,13.47,01
1999,8,1,2,40,-6.92,01,.15,01,-6.68,01,-.07,01,19.80,01,81.70,01,1.48,01,24.36,01,13.47,01
1999,8,1,2,45,-7.11,01,-.35,01,-6.96,01,-.05,01,19.68,01,83.30,01,1.65,01,45.53,01,13.47,01
1999,8,1,2,50,-7.31,01,-.48,01,-7.24,01,-.09,01,19.50,01,85.00,01,1.68,01,58.77,01,13.47,01
1999,8,1,2,55,-7.17,01,-.40,01,-7.20,01,-.09,01,19.42,01,85.50,01,1.63,01,59.65,01,13.47,01
1999,8,1,3,0,-6.92,01,-.36,01,-6.98,01,-.09,01,19.37,01,85.90,01,1.44,01,39.50,01,13.47,01
1999,8,1,3,5,-7.51,01,-.40,01,-7.26,01,-.10,01,19.18,01,87.00,01,1.49,01,41.76,01,13.47,01
1999,8,1,3,10,-7.36,01,-.40,01,-7.28,01,-.08,01,19.05,01,87.80,01,1.50,01,43.66,01,13.48,01
1999,8,1,3,15,-7.22,01,-.41,01,-7.27,01,-.17,01,18.96,01,88.70,01,1.73,01,32.68,01,13.48,01
1999,8,1,3,20,-7.22,01,-.40,01,-7.25,01,-.05,01,18.87,01,89.70,01,1.67,01,30.07,01,13.48,01
1999,8,1,3,25,-7.53,01,-.44,01,-7.45,01,-.07,01,18.73,01,91.00,01,1.67,01,44.85,01,13.48,01
1999,8,1,3,30,-7.20,01,-.39,01,-7.22,01,-.03,01,18.66,01,91.60,01,.84,01,43.56,01,13.48,01
1999,8,1,3,35,-6.80,01,-.35,01,-6.90,01,-.10,01,18.64,01,91.90,01,.65,01,345.90,01,13.48,01
1999,8,1,3,40,-6.75,01,-.30,01,-6.90,01,-.06,01,18.58,01,92.10,01,.70,01,1.35,01,13.49,01
1999,8,1,3,45,-6.75,01,-.24,01,-7.17,01,-.05,01,18.50,01,93.50,01,.25,01,14.59,01,13.49,01
1999,8,1,3,50,-6.20,01,.01,01,-6.76,01,-.06,01,18.45,01,93.60,01,.22,01,7.12,01,13.49,01
1999,8,1,3,55,-6.21,01,.15,01,-6.60,01,-.10,01,18.41,01,94.00,01,.36,01,353.70,01,13.49,01
1999,8,1,4,0,-6.57,01,.04,01,-6.86,01,-.10,01,18.36,01,94.60,01,.78,01,350.70,01,13.49,01
1999,8,1,4,5,-6.88,01,.30,01,-7.02,01,-.09,01,18.43,01,94.60,01,.65,01,27.85,01,13.49,01
1999,8,1,4,10,-6.37,01,.25,01,-6.68,01,-.11,01,18.47,01,94.40,01,.74,01,11.55,01,13.49,01
1999,8,1,4,15,-6.14,01,.35,01,-6.65,01,-.12,01,18.44,01,94.20,01,.87,01,266.00,01,13.50,01
1999,8,1,4,20,-6.22,01,.35,01,-6.68,01,-.07,01,18.47,01,94.20,01,.41,01,292.80,01,13.50,01
1999,8,1,4,25,-6.48,01,.37,01,-6.94,01,-.07,01,18.49,01,94.70,01,.17,01,180.70,01,13.50,01
1999,8,1,4,30,-6.74,01,.30,01,-7.16,01,-.08,01,18.52,01,95.50,01,1.00,01,256.00,01,13.50,01
1999,8,1,4,35,-6.94,01,.37,01,-7.27,01,-.09,01,18.56,01,95.00,01,1.41,01,257.90,01,13.50,01
1999,8,1,4,40,-6.98,01,.17,01,-7.35,01,-.04,01,18.56,01,94.80,01,1.50,01,252.00,01,13.50,01
1999,8,1,4,45,-6.67,01,.20,01,-7.17,01,-.05,01,18.61,01,93.70,01,.79,01,277.10,01,13.50,01
1999,8,1,4,50,-6.59,01,-.01,01,-7.20,01,-.03,01,18.57,01,93.80,01,1.12,01,284.90,01,13.50,01
1999,8,1,4,55,-6.66,01,-.18,01,-7.33,01,-.07,01,18.49,01,94.30,01,.98,01,269.60,01,13.50,01
1999,8,1,5,0,-6.90,01,-.23,01,-7.03,01,-.03,01,18.43,01,94.70,01,1.60,01,269.00,01,13.50,01
1999,8,1,5,5,-7.61,01,-.29,01,-6.88,01,.06,01,18.36,01,94.80,01,1.97,01,272.80,01,13.50,01
1999,8,1,5,10,-7.30,01,-.16,01,-6.49,01,.29,01,18.31,01,94.90,01,2.23,01,276.70,01,13.50,01
1999,8,1,5,15,-5.83,01,-.09,01,-5.38,01,1.05,01,18.26,01,95.00,01,1.79,01,282.10,01,13.50,01
1999,8,1,5,20,-5.36,01,.06,01,-4.54,01,1.91,01,18.23,01,95.20,01,1.39,01,293.00,01,13.50,01
1999,8,1,5,25,-3.96,01,.07,01,-3.23,01,3.41,01,18.23,01,95.40,01,1.51,01,290.80,01,13.50,01
1999,8,1,5,30,-.77,01,.14,01,.57,01,6.62,01,18.23,01,95.40,01,1.34,01,307.60,01,13.51,01
1999,8,1,5,35,3.23,01,.26,01,4.51,01,10.08,01,18.25,01,95.60,01,1.09,01,315.40,01,13.50,01
1999,8,1,5,40,8.37,01,.48,01,9.66,01,14.68,01,18.24,01,95.70,01,1.03,01,322.40,01,13.50,01
1999,8,1,5,45,14.94,01,1.68,01,15.94,01,20.73,01,18.21,01,96.30,01,.83,01,315.80,01,13.50,01
1999,8,1,5,50,21.65,01,8.44,01,21.88,01,26.86,01,18.27,01,96.50,01,.94,01,308.40,01,13.50,01
1999,8,1,5,55,39.69,01,151.60,01,27.44,01,47.61,01,18.46,01,95.70,01,1.31,01,290.60,01,13.50,01
1999,8,1,6,0,47.40,01,187.90,01,29.47,01,56.73,01,18.76,01,93.90,01,1.23,01,290.50,01,13.50,01
1999,8,1,6,5,78.10,01,395.00,01,32.58,01,95.70,01,19.03,01,92.00,01,1.21,01,303.40,01,13.50,01
1999,8,1,6,10,95.30,01,459.80,01,34.62,01,114.20,01,19.51,01,90.00,01,1.20,01,297.40,01,13.50,01
1999,8,1,6,15,107.00,01,455.60,01,39.84,01,124.30,01,19.77,01,87.90,01,1.41,01,285.50,01,13.50,01
1999,8,1,6,20,120.40,14,459.10,15,44.99,15,136.40,01,19.96,01,86.80,01,1.58,01,276.70,01,13.49,01
1999,8,1,6,25,148.60,14,531.30,15,50.92,15,164.80,01,20.08,01,86.80,01,1.49,01,269.70,01,13.48,01
1999,8,1,6,30,170.20,10,575.90,11,53.67,11,185.80,01,20.38,01,85.40,01,1.26,01,278.40,01,13.48,01
1999,8,1,6,35,188.30,10,600.10,11,56.56,11,203.60,01,20.70,01,82.70,01,1.03,01,279.90,01,13.47,01
1999,8,1,6,40,199.90,14,593.30,15,60.40,15,214.50,01,21.05,01,80.30,01,1.01,01,268.70,01,13.46,01
1999,8,1,6,45,146.60,03,347.00,03,60.18,03,153.10,01,21.37,01,78.40,01,.89,01,268.50,01,13.46,01
1999,8,1,6,50,90.80,03,98.10,03,65.55,03,90.50,01,21.70,01,77.30,01,.71,01,294.80,01,13.45,01
1999,8,1,6,55,130.60,03,205.60,03,71.40,03,131.90,01,21.77,01,76.80,01,1.07,01,287.20,01,13.44,01
1999,8,1,7,0,194.20,03,378.40,03,78.40,03,197.60,01,21.88,01,77.30,01,1.06,01,284.60,01,13.44,01
1999,8,1,7,5,241.90,03,483.70,03,83.70,03,245.00,01,22.36,01,74.80,01,1.02,01,259.50,01,13.44,01
1999,8,1,7,10,293.60,03,588.20,03,89.60,03,297.80,01,23.23,01,72.20,01,.65,01,281.00,01,13.43,01
1999,8,1,7,15,280.20,03,515.00,03,93.70,03,280.90,01,23.29,01,72.10,01,.53,01,290.20,01,13.43,01
1999,8,1,7,20,216.20,03,321.20,03,96.30,03,211.70,01,23.07,01,71.90,01,.35,01,302.20,01,13.42,01
1999,8,1,7,25,242.80,03,366.10,03,100.00,03,238.40,01,22.76,01,72.20,01,.36,01,259.90,01,13.41,01
1999,8,1,7,30,337.80,03,544.20,03,113.60,03,335.30,01,22.77,01,73.20,01,.22,01,209.50,01,13.41,01
1999,8,1,7,35,428.00,03,710.00,03,122.60,03,425.50,01,23.22,01,71.10,01,.38,01,219.50,01,13.40,01
1999,8,1,7,40,480.10,03,765.00,03,136.80,03,475.90,01,23.84,01,68.86,01,.32,01,185.60,01,13.40,01
1999,8,1,7,45,525.20,03,750.00,03,174.40,03,518.70,01,24.13,01,66.85,01,.44,01,229.00,01,13.39,01
1999,8,1,7,50,531.90,03,691.10,03,196.80,03,522.40,01,24.30,01,65.69,01,.85,01,226.50,01,13.38,01
1999,8,1,7,55,547.50,03,705.00,03,194.20,03,533.10,01,25.10,01,63.06,01,.45,01,230.20,01,13.38,01
1999,8,1,8,0,554.60,03,711.00,03,187.90,03,540.60,01,25.08,01,62.35,01,.34,01,223.10,01,13.36,01
1999,8,1,8,5,549.30,03,601.20,03,227.00,03,533.80,01,25.10,01,62.00,01,.57,01,251.30,01,13.36,01
1999,8,1,8,10,489.20,03,443.60,03,241.10,03,470.70,01,25.64,01,58.87,01,.50,01,227.90,01,13.35,01
1999,8,1,8,15,587.40,03,613.40,03,234.40,03,571.50,01,25.53,01,58.35,01,.33,01,250.00,01,13.34,01
1999,8,1,8,20,477.00,03,401.20,03,237.00,03,454.90,01,25.86,01,57.40,01,.82,01,317.20,01,13.33,01
1999,8,1,8,25,559.00,03,596.20,03,198.80,03,540.30,01,25.88,01,57.46,01,.38,01,311.10,01,13.33,01
1999,8,1,8,30,656.00,03,712.00,03,216.60,03,633.60,01,26.71,01,54.91,01,.44,01,129.40,01,13.32,01
1999,8,1,8,35,521.20,03,400.80,03,260.90,03,493.90,01,27.38,01,53.02,01,.47,01,194.70,01,13.32,01
1999,8,1,8,40,445.30,03,238.40,03,281.10,03,422.20,01,26.60,01,55.18,01,.38,01,208.90,01,13.31,01
1999,8,1,8,45,622.10,03,472.80,03,300.20,03,599.70,01,26.03,01,57.08,01,.15,01,219.60,01,13.30,01
1999,8,1,8,50,630.30,03,376.10,03,367.20,03,607.30,01,25.95,01,57.99,01,.70,01,233.60,01,13.30,01
1999,8,1,8,55,559.20,03,237.70,03,389.10,03,534.70,01,26.79,01,56.01,01,.61,01,244.20,01,13.29,01
1999,8,1,9,0,631.30,03,327.20,03,395.30,03,608.90,01,26.92,01,55.65,01,.26,01,332.30,01,13.29,01
1999,8,1,9,5,749.00,03,485.40,03,394.00,03,730.00,01,26.55,01,56.86,01,.50,01,356.00,01,13.28,01
1999,8,1,9,10,935.00,09,731.00,09,397.20,09,910.00,01,27.59,01,53.84,01,.61,01,335.10,01,13.28,01
1999,8,1,9,15,518.80,03,124.70,03,426.10,03,495.00,01,27.26,01,53.75,01,.58,01,33.53,01,13.27,01
1999,8,1,9,20,484.50,03,94.90,03,410.50,03,464.40,01,26.33,01,56.72,01,.48,01,60.36,01,13.26,01
1999,8,1,9,25,498.70,03,66.55,03,442.40,03,475.00,01,26.20,01,56.23,01,.45,01,184.80,01,13.26,01
1999,8,1,9,30,506.10,03,54.99,03,463.30,03,483.20,01,26.29,01,55.81,01,.55,01,168.40,01,13.26,01
1999,8,1,9,35,475.80,03,25.45,03,459.70,03,455.20,01,26.29,01,56.63,01,.82,01,184.00,01,13.25,01
1999,8,1,9,40,629.10,03,179.20,03,477.80,03,605.90,01,25.63,01,58.10,01,.04,01,169.70,01,13.25,01
1999,8,1,9,45,677.90,03,236.70,03,479.00,03,656.10,01,25.59,01,58.67,01,.70,01,47.78,01,13.25,01
1999,8,1,9,50,945.00,03,596.10,03,447.50,03,910.00,01,27.08,01,53.39,01,.97,01,53.74,01,13.25,01
1999,8,1,9,55,658.70,03,269.80,03,431.10,03,623.00,01,28.07,01,50.05,01,.66,01,115.50,01,13.24,01
1999,8,1,10,0,639.70,03,285.00,03,391.10,03,606.20,01,27.68,01,51.91,01,.25,01,22.87,01,13.24,01
1999,8,1,10,5,890.00,03,663.90,03,309.50,03,853.00,01,27.33,01,52.34,01,.94,01,92.80,01,13.23,01
1999,8,1,10,10,771.00,03,595.00,03,242.50,03,731.00,01,28.11,01,49.55,01,1.28,01,112.50,01,13.23,01
1999,8,1,10,15,872.00,03,752.00,03,197.70,03,830.00,01,28.29,01,49.13,01,1.16,01,82.20,01,13.23,01
1999,8,1,10,20,947.00,03,882.00,03,155.50,03,896.00,01,28.70,01,47.95,01,1.00,01,81.90,01,13.22,01
1999,8,1,10,25,941.00,03,904.00,03,122.90,03,888.00,01,29.56,01,45.76,01,.29,01,87.40,01,13.22,01
1999,8,1,10,30,928.00,03,900.00,03,104.80,03,876.00,01,29.37,01,45.62,01,.37,01,128.00,01,13.21,01
1999,8,1,10,35,935.00,03,900.00,03,104.30,03,880.00,01,30.13,01,43.02,01,1.29,01,143.20,01,13.20,01
1999,8,1,10,40,938.00,03,895.00,03,102.60,03,881.00,01,29.04,01,47.22,01,1.14,01,121.70,01,13.20,01
1999,8,1,10,45,943.00,03,889.00,03,102.80,03,886.00,01,29.22,01,47.37,01,.76,01,114.50,01,13.19,01
1999,8,1,10,50,943.00,11,886.00,10,100.70,10,886.00,01,29.28,01,47.46,01,.46,01,154.30,01,13.19,01
1999,8,1,10,55,948.00,11,888.00,10,100.30,10,890.00,01,29.32,01,46.59,01,1.04,01,185.30,01,13.18,01
1999,8,1,11,0,961.00,11,895.00,10,99.50,10,898.00,01,29.73,01,44.73,01,.73,01,196.10,01,13.18,01
1999,8,1,11,5,963.00,11,894.00,10,98.50,10,899.00,01,28.85,01,47.91,01,.80,01,59.60,01,13.18,01
1999,8,1,11,10,965.00,11,902.00,10,92.00,10,901.00,01,28.79,01,49.01,01,1.03,01,139.70,01,13.18,01
1999,8,1,11,15,973.00,11,906.00,10,89.40,10,907.00,01,28.88,01,47.88,01,.47,01,78.50,01,13.18,01
1999,8,1,11,20,981.00,11,906.00,10,91.40,10,913.00,01,29.42,01,46.60,01,1.16,01,340.40,01,13.18,01
1999,8,1,11,25,982.00,11,898.00,10,94.50,10,915.00,01,29.64,01,46.44,01,1.19,01,.49,01,13.18,01
1999,8,1,11,30,987.00,11,901.00,10,94.30,10,919.00,01,29.76,01,45.72,01,1.30,01,348.60,01,13.18,01
1999,8,1,11,35,982.00,11,893.00,10,95.10,10,911.00,01,29.96,01,45.30,01,1.13,01,335.70,01,13.17,01
1999,8,1,11,40,980.00,03,886.00,03,97.90,03,911.00,01,29.89,01,45.14,01,1.32,01,48.63,01,13.17,01
1999,8,1,11,45,1000.00,03,902.00,03,101.40,03,927.00,01,30.50,01,43.27,01,1.05,01,49.80,01,13.17,01
1999,8,1,11,50,1006.00,11,904.00,10,104.30,10,934.00,01,30.68,01,43.30,01,.94,01,23.00,01,13.17,01
1999,8,1,11,55,995.00,11,894.00,10,98.30,10,926.00,01,30.46,01,42.86,01,1.36,01,304.40,01,13.16,01
1999,8,1,12,0,994.00,03,894.00,03,97.10,03,926.00,01,29.71,01,44.17,01,1.69,01,351.20,01,13.16,01
1999,8,1,12,5,998.00,11,864.00,10,132.90,10,932.00,01,29.29,01,45.58,01,1.64,01,350.00,01,13.16,01
1999,8,1,12,10,1026.00,11,895.00,10,131.70,10,957.00,01,29.59,01,44.30,01,1.06,01,340.60,01,13.16,01
1999,8,1,12,15,1031.00,03,889.00,03,137.80,03,961.00,01,30.46,01,41.96,01,1.40,01,326.10,01,13.16,01
1999,8,1,12,20,1012.00,03,897.00,03,109.70,03,942.00,01,30.30,01,41.69,01,1.16,01,345.60,01,13.15,01
1999,8,1,12,25,1006.00,11,906.00,10,93.50,10,937.00,01,30.13,01,41.87,01,1.04,01,10.96,01,13.15,01
1999,8,1,12,30,1004.00,11,908.00,10,91.80,10,935.00,01,30.55,01,40.31,01,1.24,01,354.20,01,13.15,01
1999,8,1,12,35,1002.00,11,905.00,10,93.50,10,934.00,01,30.90,01,38.18,01,.99,01,40.83,01,13.15,01
1999,8,1,12,40,997.00,03,909.00,03,87.60,03,930.00,01,30.57,01,38.60,01,.52,01,31.87,01,13.15,01
1999,8,1,12,45,998.00,03,913.00,03,89.00,03,929.00,01,31.26,01,37.38,01,.33,01,251.90,01,13.15,01
1999,8,1,12,50,994.00,03,910.00,03,87.90,03,927.00,01,31.21,01,36.97,01,.79,01,340.50,01,13.15,01
1999,8,1,12,55,993.00,03,913.00,03,85.30,03,925.00,01,30.79,01,37.68,01,1.83,01,28.22,01,13.15,01
1999,8,1,13,0,993.00,03,918.00,03,85.60,03,923.00,01,31.18,01,37.04,01,1.60,01,26.73,01,13.14,01
1999,8,1,13,5,984.00,11,916.00,10,81.50,10,917.00,01,31.18,01,36.71,01,1.48,01,14.03,01,13.14,01
1999,8,1,13,10,975.00,11,911.00,10,80.20,10,910.00,01,30.89,01,37.27,01,1.75,01,10.51,01,13.14,01
1999,8,1,13,15,975.00,11,917.00,10,80.40,10,907.00,01,30.62,01,37.23,01,2.05,01,348.30,01,13.14,01
1999,8,1,13,20,970.00,03,912.00,03,83.00,03,903.00,01,31.30,01,35.44,01,1.46,01,315.50,01,13.14,01
1999,8,1,13,25,960.00,03,911.00,03,82.20,03,898.00,01,31.46,01,33.75,01,1.71,01,344.10,01,13.13,01
1999,8,1,13,30,956.00,03,914.00,03,80.50,03,894.00,01,31.26,01,33.49,01,.54,01,335.90,01,13.13,01
1999,8,1,13,35,947.00,03,910.00,03,76.90,03,888.00,01,30.78,01,35.75,01,1.39,01,350.10,01,13.13,01
1999,8,1,13,40,940.00,03,913.00,03,77.30,03,882.00,01,31.24,01,33.86,01,1.65,01,347.30,01,13.13,01
1999,8,1,13,45,936.00,11,913.00,10,77.40,10,877.00,01,31.59,01,33.30,01,1.20,01,28.23,01,13.13,01
1999,8,1,13,50,926.00,03,915.00,03,75.20,03,871.00,01,31.49,01,33.88,01,.18,01,41.40,01,13.13,01
1999,8,1,13,55,919.00,03,915.00,03,74.80,03,865.00,01,31.64,01,33.08,01,1.40,01,29.59,01,13.13,01
1999,8,1,14,0,910.00,03,907.00,03,76.70,03,857.00,01,31.47,01,33.89,01,1.39,01,345.90,01,13.13,01
1999,8,1,14,5,902.00,03,906.00,03,76.50,03,849.00,01,31.19,01,34.69,01,1.16,01,24.60,01,13.13,01
1999,8,1,14,10,893.00,03,907.00,03,77.70,03,842.00,01,31.59,01,33.28,01,2.27,01,9.56,01,13.13,01
1999,8,1,14,15,882.00,03,905.00,03,79.30,03,833.00,01,32.05,01,31.82,01,1.65,01,353.50,01,13.13,01
1999,8,1,14,20,871.00,03,898.00,03,80.80,03,822.00,01,32.36,01,31.16,01,2.05,01,347.80,01,13.12,01
1999,8,1,14,25,863.00,03,899.00,03,81.50,03,815.00,01,32.57,01,30.80,01,2.01,01,332.00,01,13.12,01
1999,8,1,14,30,849.00,03,897.00,03,80.40,03,804.00,01,32.48,01,31.04,01,1.86,01,337.90,01,13.12,01
1999,8,1,14,35,835.00,03,892.00,03,80.10,03,794.00,01,32.31,01,31.54,01,1.90,01,16.94,01,13.12,01
1999,8,1,14,40,823.00,03,892.00,03,80.30,03,783.00,01,32.13,01,31.93,01,1.11,01,24.42,01,13.12,01
1999,8,1,14,45,812.00,03,891.00,03,79.40,03,772.00,01,32.45,01,31.66,01,1.76,01,348.80,01,13.12,01
1999,8,1,14,50,799.00,03,891.00,03,77.30,03,761.00,01,32.48,01,31.42,01,1.87,01,352.00,01,13.11,01
1999,8,1,14,55,788.00,03,886.00,03,77.20,03,750.00,01,32.74,01,31.37,01,1.71,01,343.90,01,13.11,01
1999,8,1,15,0,776.00,03,883.00,03,77.20,03,740.00,01,33.03,01,31.00,01,1.59,01,349.40,01,13.11,01
1999,8,1,15,5,764.00,03,881.00,03,77.30,03,729.00,01,33.08,01,30.87,01,1.75,01,329.70,01,13.11,01
1999,8,1,15,10,749.00,03,877.00,03,77.80,03,718.00,01,32.77,01,31.58,01,2.03,01,308.20,01,13.10,01
1999,8,1,15,15,737.00,03,871.00,03,79.10,03,707.00,01,32.61,01,31.72,01,1.76,01,301.90,01,13.10,01
1999,8,1,15,20,721.00,03,867.00,03,79.00,03,694.70,01,31.87,01,33.32,01,1.69,01,309.50,01,13.10,01
1999,8,1,15,25,706.00,03,864.00,03,78.70,03,681.50,01,31.93,01,33.39,01,1.43,01,331.80,01,13.10,01
1999,8,1,15,30,693.10,03,866.00,03,78.40,03,670.00,01,32.32,01,32.32,01,1.89,01,358.00,01,13.10,01
1999,8,1,15,35,681.90,03,863.00,03,82.50,03,659.10,01,32.77,01,31.54,01,1.65,01,343.40,01,13.10,01
1999,8,1,15,40,666.60,03,854.00,03,85.30,03,647.80,01,32.62,01,31.90,01,1.23,01,6.25,01,13.10,01
1999,8,1,15,45,652.70,03,849.00,03,87.60,03,637.50,01,31.98,01,32.90,01,1.41,01,8.58,01,13.10,01
1999,8,1,15,50,640.60,03,844.00,03,90.70,03,624.60,01,32.21,01,32.40,01,1.51,01,32.04,01,13.10,01
1999,8,1,15,55,622.70,03,836.00,03,90.80,03,606.60,01,32.68,01,31.80,01,1.71,01,19.98,01,13.10,01
1999,8,1,16,0,603.70,03,832.00,03,87.20,03,591.70,01,32.40,01,32.21,01,1.72,01,29.44,01,13.10,01
1999,8,1,16,5,581.20,03,821.00,03,84.50,03,572.30,01,32.23,01,32.31,01,1.40,01,353.50,01,13.10,01
1999,8,1,16,10,560.00,03,813.00,03,81.40,03,553.70,01,32.01,01,32.51,01,1.29,01,34.75,01,13.10,01
1999,8,1,16,15,541.50,03,809.00,03,78.00,03,537.80,01,31.35,01,34.04,01,1.45,01,21.48,01,13.10,01
1999,8,1,16,20,528.10,03,814.00,03,76.90,03,523.80,01,31.80,01,32.96,01,1.71,01,24.19,01,13.10,01
1999,8,1,16,25,511.50,03,804.00,03,77.70,03,506.00,01,32.25,01,31.82,01,1.05,01,52.15,01,13.10,01
1999,8,1,16,30,493.10,03,795.00,03,78.70,03,487.10,01,32.90,01,31.42,01,1.30,01,52.01,01,13.10,01
1999,8,1,16,35,471.50,03,772.00,03,81.40,03,468.20,01,33.31,01,30.77,01,1.73,01,61.19,01,13.10,01
1999,8,1,16,40,445.30,03,740.00,03,84.70,03,448.40,01,32.29,01,31.82,01,1.87,01,63.95,01,13.10,01
1999,8,1,16,45,452.50,03,769.00,03,92.60,03,455.00,01,32.88,01,30.77,01,1.76,01,49.23,01,13.10,01
1999,8,1,16,50,438.60,03,759.00,03,100.20,03,444.80,01,33.43,01,29.23,01,1.77,01,57.93,01,13.10,01
1999,8,1,16,55,427.50,03,749.00,03,108.50,03,437.50,01,33.15,01,30.11,01,1.04,01,31.95,01,13.10,01
1999,8,1,17,0,413.20,03,735.00,03,112.30,03,423.80,01,33.35,01,29.95,01,.67,01,97.20,01,13.10,01
1999,8,1,17,5,398.00,10,726.00,11,111.80,11,409.40,01,33.70,01,28.92,01,.83,01,21.72,01,13.10,01
1999,8,1,17,10,380.50,03,712.00,03,111.80,03,395.40,01,33.19,01,29.93,01,1.28,01,64.75,01,13.09,01
1999,8,1,17,15,364.50,10,696.20,11,113.60,11,377.90,01,34.16,01,28.82,01,1.52,01,47.13,01,13.09,01
1999,8,1,17,20,344.80,03,676.50,03,113.00,03,359.60,01,34.10,01,28.60,01,1.29,01,306.40,01,13.09,01
1999,8,1,17,25,320.80,03,629.40,03,116.90,03,336.40,01,33.71,01,28.78,01,1.16,01,331.10,01,13.09,01
1999,8,1,17,30,312.80,10,633.70,11,120.20,11,332.30,01,32.76,01,30.30,01,.92,01,326.10,01,13.09,01
1999,8,1,17,35,279.40,10,584.70,11,112.00,11,300.30,01,32.43,01,32.66,01,.60,01,343.70,01,13.09,01
1999,8,1,17,40,257.40,03,589.80,03,97.90,03,281.00,01,32.05,01,32.68,01,.47,01,62.92,01,13.09,01
1999,8,1,17,45,222.50,03,509.00,03,94.10,03,248.90,01,31.07,01,34.89,01,.46,01,144.80,01,13.09,01
1999,8,1,17,50,155.10,03,257.60,03,95.50,03,174.80,01,30.63,01,35.51,01,.62,01,264.00,01,13.10,01
1999,8,1,17,55,105.90,03,115.30,03,82.60,03,121.10,01,30.38,01,35.35,01,1.13,01,302.50,01,13.10,01
1999,8,1,18,0,63.01,03,14.12,03,63.23,03,74.80,01,30.18,01,35.05,01,.59,01,286.50,01,13.11,01
1999,8,1,18,5,35.18,03,-.53,03,38.77,03,45.98,01,30.02,01,34.16,01,1.18,01,248.00,01,13.12,01
1999,8,1,18,10,19.55,03,-.21,03,22.59,03,29.94,01,30.03,01,34.56,01,1.18,01,205.70,01,13.13,01
1999,8,1,18,15,12.06,01,-.66,01,14.80,01,22.37,01,29.89,01,35.00,01,2.96,01,225.40,01,13.13,01
1999,8,1,18,20,7.13,01,-.88,01,9.65,01,17.74,01,29.64,01,33.47,01,3.29,01,216.90,01,13.14,01
1999,8,1,18,25,5.30,01,-.31,01,7.36,01,15.13,01,29.59,01,34.73,01,2.87,01,221.40,01,13.15,01
1999,8,1,18,30,3.80,01,-.22,01,5.40,01,13.03,01,29.46,01,35.40,01,2.52,01,221.70,01,13.15,01
1999,8,1,18,35,1.70,01,.05,01,2.90,01,10.46,01,29.43,01,35.98,01,2.43,01,223.60,01,13.16,01
1999,8,1,18,40,-1.20,01,-.07,01,.38,01,7.69,01,29.38,01,38.36,01,2.40,01,213.90,01,13.16,01
1999,8,1,18,45,-3.13,01,-.56,01,-1.77,01,6.33,01,29.13,01,39.69,01,2.27,01,208.60,01,13.17,01
1999,8,1,18,50,-4.51,01,-.70,01,-2.97,01,5.29,01,28.94,01,40.15,01,2.60,01,214.50,01,13.17,01
1999,8,1,18,55,-5.86,01,-.41,01,-4.36,01,4.01,01,28.87,01,39.94,01,2.05,01,219.40,01,13.17,01
1999,8,1,19,0,-7.82,01,-.47,01,-6.28,01,2.44,01,28.74,01,40.39,01,1.50,01,246.10,01,13.18,01
1999,8,1,19,5,-8.92,01,-.43,01,-7.47,01,1.41,01,28.61,01,41.11,01,1.69,01,246.10,01,13.18,01
1999,8,1,19,10,-9.92,01,-.35,01,-8.36,01,.85,01,28.53,01,41.44,01,1.98,01,257.30,01,13.19,01
1999,8,1,19,15,-10.22,07,-.21,01,-9.01,01,.42,01,28.51,01,41.34,01,3.63,01,271.10,01,13.19,01
1999,8,1,19,20,-9.82,01,-.09,01,-8.89,01,.13,01,28.54,01,41.22,01,3.62,01,263.30,01,13.19,01
1999,8,1,19,25,-9.58,01,-.05,01,-8.73,01,-.03,01,28.55,01,41.24,01,2.94,01,257.90,01,13.20,01
1999,8,1,19,30,-9.36,01,-.10,01,-8.68,01,-.07,01,28.51,01,41.42,01,2.62,01,257.60,01,13.20,01
1999,8,1,19,35,-9.79,01,-.14,01,-8.79,01,-.08,01,28.44,01,41.64,01,2.82,01,263.00,01,13.20,01
1999,8,1,19,40,-10.14,07,-.19,01,-8.94,01,-.08,01,28.38,01,42.10,01,2.90,01,264.60,01,13.21,01
1999,8,1,19,45,-9.84,01,-.04,01,-8.61,01,-.10,01,28.41,01,41.93,01,2.85,01,272.90,01,13.21,01
1999,8,1,19,50,-9.67,01,-.19,01,-8.33,01,-.10,01,28.31,01,43.28,01,3.02,01,275.90,01,13.21,01
1999,8,1,19,55,-9.90,01,-.37,01,-8.37,01,-.08,01,28.07,01,44.45,01,2.85,01,279.00,01,13.21,01
1999,8,1,20,0,-9.50,01,-.18,01,-7.94,01,-.12,01,28.06,01,44.59,01,2.41,01,275.70,01,13.22,01
1999,8,1,20,5,-8.42,01,-.21,01,-7.32,01,-.05,01,28.09,01,45.37,01,2.12,01,271.50,01,13.22,01
1999,8,1,20,10,-8.80,01,-1.94,01,-7.56,01,-.09,01,27.43,01,50.00,01,2.37,01,265.10,01,13.22,01
1999,8,1,20,15,-9.71,01,-1.89,01,-8.31,01,-.08,01,26.87,01,51.76,01,2.14,01,258.10,01,13.23,01
1999,8,1,20,20,-10.86,07,-2.16,01,-9.29,01,-.10,01,26.52,01,53.02,01,1.71,01,243.30,01,13.23,01
1999,8,1,20,25,-11.95,07,-1.54,01,-10.35,07,.01,01,25.89,01,53.78,01,1.64,01,235.20,01,13.23,01
1999,8,1,20,30,-11.01,07,-.31,01,-9.44,01,-.10,01,25.97,01,51.77,01,1.44,01,229.10,01,13.24,01
1999,8,1,20,35,-10.69,07,-.12,01,-9.13,01,-.06,01,26.01,01,51.41,01,1.49,01,228.50,01,13.24,01
1999,8,1,20,40,-10.37,07,-.24,01,-9.01,01,-.06,01,25.89,01,52.25,01,.26,01,237.80,01,13.25,01
1999,8,1,20,45,-9.94,01,-.22,01,-8.73,01,-.11,01,25.76,01,53.01,01,1.27,01,21.99,01,13.25,01